| time (UTC) | temp F | wind direction | speed MPH | gust MPH | rain 1hr in | rain 24hr in | rain mn in | humidity % | barometer mb |
| 20260503005558 | 47 | 11 | 0.0 | 0.0 | 0.00 | 0.00 | 0.00 | 48 | 1017.3 |
| 20260503005100 | 47 | 11 | 0.0 | 0.0 | 0.00 | 0.00 | 0.00 | 48 | 1017.2 |
| 20260503004700 | 48 | 11 | 0.0 | 0.0 | 0.00 | 0.00 | 0.00 | 47 | 1017.2 |
| 20260503004056 | 48 | 11 | 0.0 | 1.0 | 0.00 | 0.00 | 0.00 | 48 | 1017.1 |
| 20260503003556 | 48 | 11 | 0.0 | 1.0 | 0.00 | 0.00 | 0.00 | 47 | 1017.1 |
| 20260503003058 | 49 | 11 | 0.0 | 0.0 | 0.00 | 0.00 | 0.00 | 47 | 1017.1 |
| 20260503002556 | 49 | 11 | 0.0 | 0.0 | 0.00 | 0.00 | 0.00 | 48 | 1017.1 |
| 20260503002056 | 49 | 11 | 0.0 | 0.0 | 0.00 | 0.00 | 0.00 | 46 | 1017.0 |
| 20260503001556 | 49 | 11 | 0.0 | 0.0 | 0.00 | 0.00 | 0.00 | 46 | 1017.0 |
| 20260503001057 | 49 | 11 | 0.0 | 2.0 | 0.00 | 0.00 | 0.00 | 45 | 1016.9 |
| 20260503000555 | 50 | 11 | 0.0 | 2.0 | 0.00 | 0.00 | 0.00 | 45 | 1016.8 |
| 20260503000056 | 50 | 11 | 0.0 | 3.0 | 0.00 | 0.00 | 0.00 | 44 | 1016.8 |
| 20260502235555 | 50 | 11 | 0.0 | 3.0 | 0.00 | 0.00 | 0.00 | 42 | 1016.7 |
| 20260502235055 | 50 | 12 | 0.0 | 3.0 | 0.00 | 0.00 | 0.00 | 41 | 1016.6 |
| 20260502234556 | 51 | 29 | 1.0 | 3.0 | 0.00 | 0.00 | 0.00 | 42 | 1016.5 |
| 20260502234055 | 51 | 331 | 0.0 | 2.0 | 0.00 | 0.00 | 0.00 | 43 | 1016.4 |
| 20260502233554 | 51 | 331 | 0.0 | 3.0 | 0.00 | 0.00 | 0.00 | 39 | 1016.3 |
| 20260502233102 | 51 | 331 | 1.0 | 3.0 | 0.00 | 0.00 | 0.00 | 40 | 1016.3 |
| 20260502232554 | 51 | 335 | 1.0 | 3.0 | 0.00 | 0.00 | 0.00 | 42 | 1016.3 |
| 20260502232054 | 51 | 335 | 0.0 | 3.0 | 0.00 | 0.00 | 0.00 | 42 | 1016.3 |
| 20260502231605 | 51 | 335 | 0.0 | 3.0 | 0.00 | 0.00 | 0.00 | 40 | 1016.4 |
| 20260502231054 | 51 | 339 | 0.0 | 2.0 | 0.00 | 0.00 | 0.00 | 37 | 1016.3 |
| 20260502230554 | 51 | 328 | 0.0 | 3.0 | 0.00 | 0.00 | 0.00 | 37 | 1016.4 |
| 20260502230053 | 52 | 328 | 1.0 | 4.0 | 0.00 | 0.00 | 0.00 | 37 | 1016.4 |
| 20260502225553 | 52 | 327 | 1.0 | 4.0 | 0.00 | 0.00 | 0.00 | 38 | 1016.3 |
| 20260502225052 | 52 | 304 | 2.0 | 4.0 | 0.00 | 0.00 | 0.00 | 38 | 1016.3 |
| 20260502224553 | 52 | 322 | 0.0 | 4.0 | 0.00 | 0.00 | 0.00 | 40 | 1016.3 |
| 20260502224052 | 52 | 321 | 1.0 | 4.0 | 0.00 | 0.00 | 0.00 | 37 | 1016.3 |
| 20260502223552 | 52 | 28 | 1.0 | 4.0 | 0.00 | 0.00 | 0.00 | 42 | 1016.2 |
| 20260502223052 | 52 | 331 | 0.0 | 3.0 | 0.00 | 0.00 | 0.00 | 38 | 1016.3 |
| 20260502222552 | 52 | 331 | 0.0 | 3.0 | 0.00 | 0.00 | 0.00 | 39 | 1016.2 |
| 20260502222056 | 52 | 320 | 0.0 | 3.0 | 0.00 | 0.00 | 0.00 | 40 | 1016.2 |
| 20260502221551 | 52 | 321 | 0.0 | 3.0 | 0.00 | 0.00 | 0.00 | 39 | 1016.1 |
| 20260502221051 | 53 | 342 | 0.0 | 2.0 | 0.00 | 0.00 | 0.00 | 39 | 1016.2 |
| 20260502220551 | 53 | 342 | 0.0 | 2.0 | 0.00 | 0.00 | 0.00 | 38 | 1016.1 |
| 20260502220100 | 53 | 342 | 0.0 | 2.0 | 0.00 | 0.00 | 0.00 | 37 | 1016.1 |
| 20260502215551 | 53 | 343 | 0.0 | 3.0 | 0.00 | 0.00 | 0.00 | 36 | 1016.1 |
| 20260502215050 | 53 | 344 | 1.0 | 6.0 | 0.00 | 0.00 | 0.00 | 39 | 1016.1 |
| 20260502214550 | 54 | 351 | 1.0 | 6.0 | 0.00 | 0.00 | 0.00 | 36 | 1016.0 |
| 20260502214051 | 54 | 307 | 0.0 | 2.0 | 0.00 | 0.00 | 0.00 | 38 | 1015.8 |
| 20260502213550 | 54 | 307 | 0.0 | 2.0 | 0.00 | 0.00 | 0.00 | 37 | 1015.8 |
| 20260502213051 | 54 | 306 | 0.0 | 4.0 | 0.00 | 0.00 | 0.00 | 35 | 1015.8 |
| 20260502212549 | 54 | 306 | 1.0 | 4.0 | 0.00 | 0.00 | 0.00 | 37 | 1015.8 |
| 20260502212049 | 54 | 328 | 1.0 | 4.0 | 0.00 | 0.00 | 0.00 | 36 | 1015.9 |
| 20260502211550 | 54 | 288 | 1.0 | 4.0 | 0.00 | 0.00 | 0.00 | 35 | 1016.0 |
| 20260502211051 | 54 | 63 | 1.0 | 4.0 | 0.00 | 0.00 | 0.00 | 34 | 1015.7 |
| 20260502210549 | 54 | 67 | 1.0 | 4.0 | 0.00 | 0.00 | 0.00 | 34 | 1015.8 |
| 20260502210058 | 54 | 31 | 1.0 | 3.0 | 0.00 | 0.00 | 0.00 | 34 | 1015.8 |
| 20260502205548 | 55 | 355 | 0.0 | 2.0 | 0.00 | 0.00 | 0.00 | 36 | 1015.8 |
| 20260502205050 | 55 | 355 | 0.0 | 6.0 | 0.00 | 0.00 | 0.00 | 37 | 1015.7 |
| 20260502204548 | 55 | 322 | 1.0 | 6.0 | 0.00 | 0.00 | 0.00 | 35 | 1015.8 |
| 20260502204148 | 55 | 328 | 0.0 | 3.0 | 0.00 | 0.00 | 0.00 | 36 | 1015.6 |
| 20260502203547 | 55 | 329 | 1.0 | 5.0 | 0.00 | 0.00 | 0.00 | 35 | 1015.7 |
| 20260502203050 | 55 | 355 | 1.0 | 4.0 | 0.00 | 0.00 | 0.00 | 35 | 1015.6 |
| 20260502202545 | 55 | 335 | 1.0 | 3.0 | 0.00 | 0.00 | 0.00 | 38 | 1015.8 |
| 20260502202045 | 55 | 334 | 1.0 | 3.0 | 0.00 | 0.00 | 0.00 | 32 | 1015.9 |
| 20260502201546 | 56 | 317 | 1.0 | 3.0 | 0.00 | 0.00 | 0.00 | 34 | 1016.0 |
| 20260502201045 | 57 | 319 | 0.0 | 5.0 | 0.00 | 0.00 | 0.00 | 31 | 1016.0 |
| 20260502200544 | 57 | 34 | 1.0 | 5.0 | 0.00 | 0.00 | 0.00 | 33 | 1015.9 |
| 20260502200044 | 57 | 54 | 1.0 | 4.0 | 0.00 | 0.00 | 0.00 | 33 | 1016.0 |
| 20260502195543 | 57 | 304 | 1.0 | 4.0 | 0.00 | 0.00 | 0.00 | 32 | 1015.9 |
| 20260502195044 | 57 | 321 | 1.0 | 5.0 | 0.00 | 0.00 | 0.00 | 31 | 1016.0 |
| 20260502194543 | 58 | 34 | 1.0 | 5.0 | 0.00 | 0.00 | 0.00 | 32 | 1016.0 |
| 20260502194041 | 58 | 325 | 1.0 | 7.0 | 0.00 | 0.00 | 0.00 | 35 | 1016.1 |
| 20260502193642 | 57 | 319 | 1.0 | 7.0 | 0.00 | 0.00 | 0.00 | 33 | 1016.2 |
| 20260502193041 | 58 | 9 | 1.0 | 5.0 | 0.00 | 0.00 | 0.00 | 35 | 1016.1 |
| 20260502192543 | 58 | 311 | 1.0 | 5.0 | 0.00 | 0.00 | 0.00 | 32 | 1016.3 |
| 20260502192038 | 58 | 319 | 0.0 | 4.0 | 0.00 | 0.00 | 0.00 | 34 | 1016.3 |
| 20260502191539 | 58 | 315 | 2.0 | 4.0 | 0.00 | 0.00 | 0.00 | 32 | 1016.4 |
| 20260502191036 | 58 | 316 | 0.0 | 5.0 | 0.00 | 0.00 | 0.00 | 36 | 1016.4 |
| 20260502190537 | 57 | 317 | 2.0 | 5.0 | 0.00 | 0.00 | 0.00 | 32 | 1016.5 |
| 20260502190036 | 57 | 355 | 2.0 | 4.0 | 0.00 | 0.00 | 0.00 | 30 | 1016.3 |
| 20260502185535 | 57 | 31 | 1.0 | 8.0 | 0.00 | 0.00 | 0.00 | 30 | 1016.5 |
| 20260502185035 | 58 | 333 | 3.0 | 8.0 | 0.00 | 0.00 | 0.00 | 31 | 1016.5 |
| 20260502184545 | 58 | 316 | 2.0 | 5.0 | 0.00 | 0.00 | 0.00 | 31 | 1016.5 |
| 20260502184035 | 59 | 327 | 1.0 | 5.0 | 0.00 | 0.00 | 0.00 | 30 | 1016.6 |
| 20260502183533 | 59 | 342 | 1.0 | 3.0 | 0.00 | 0.00 | 0.00 | 36 | 1016.6 |
| 20260502183032 | 58 | 42 | 0.0 | 9.0 | 0.00 | 0.00 | 0.00 | 38 | 1016.5 |
| 20260502182531 | 57 | 355 | 1.0 | 9.0 | 0.00 | 0.00 | 0.00 | 37 | 1016.6 |
| 20260502182031 | 57 | 323 | 1.0 | 5.0 | 0.00 | 0.00 | 0.00 | 35 | 1016.6 |
| 20260502181532 | 56 | 16 | 2.0 | 4.0 | 0.00 | 0.00 | 0.00 | 32 | 1016.7 |
| 20260502181031 | 57 | 355 | 1.0 | 5.0 | 0.00 | 0.00 | 0.00 | 35 | 1016.7 |
| 20260502180531 | 57 | 313 | 1.0 | 5.0 | 0.00 | 0.00 | 0.00 | 35 | 1016.7 |
| 20260502164025 | 56 | 51 | 2.0 | 5.0 | 0.00 | 0.00 | 0.00 | 35 | 1017.2 |
| 20260502163519 | 56 | 328 | 1.0 | 3.0 | 0.00 | 0.00 | 0.00 | 39 | 1017.3 |
| 20260502163020 | 56 | 53 | 1.0 | 4.0 | 0.00 | 0.00 | 0.00 | 36 | 1017.5 |
| 20260502162519 | 56 | 314 | 1.0 | 4.0 | 0.00 | 0.00 | 0.00 | 39 | 1017.5 |
| 20260502162016 | 55 | 326 | 1.0 | 4.0 | 0.00 | 0.00 | 0.00 | 38 | 1017.5 |
| 20260502161516 | 55 | 44 | 2.0 | 4.0 | 0.00 | 0.00 | 0.00 | 39 | 1017.6 |
| 20260502161014 | 55 | 17 | 0.0 | 5.0 | 0.00 | 0.00 | 0.00 | 39 | 1017.5 |
| 20260502160513 | 55 | 346 | 0.0 | 4.0 | 0.00 | 0.00 | 0.00 | 38 | 1017.5 |
| 20260502152002 | 53 | 317 | 0.0 | 1.0 | 0.00 | 0.00 | 0.00 | 44 | 1017.8 |
| 20260502151502 | 52 | 327 | 0.0 | 3.0 | 0.00 | 0.00 | 0.00 | 43 | 1017.7 |
| 20260502151002 | 52 | 327 | 0.0 | 3.0 | 0.00 | 0.00 | 0.00 | 45 | 1017.7 |
| 20260502150559 | 52 | 315 | 0.0 | 0.0 | 0.00 | 0.00 | 0.00 | 47 | 1017.8 |
| 20260502130530 | 40 | 317 | 0.0 | 0.0 | 0.00 | 0.00 | 0.00 | 74 | 1017.5 |
| 20260502123529 | 38 | 319 | 0.0 | 0.0 | 0.00 | 0.00 | 0.00 | 74 | 1017.4 |
| 20260502123027 | 38 | 319 | 0.0 | 0.0 | 0.00 | 0.00 | 0.00 | 74 | 1017.5 |
| 20260502122527 | 38 | 319 | 0.0 | 0.0 | 0.00 | 0.00 | 0.00 | 74 | 1017.3 |
| 20260502122027 | 38 | 319 | 0.0 | 0.0 | 0.00 | 0.00 | 0.00 | 74 | 1017.4 |
| 20260502121528 | 38 | 319 | 0.0 | 0.0 | 0.00 | 0.00 | 0.00 | 74 | 1017.3 |
| 20260502121027 | 38 | 319 | 0.0 | 0.0 | 0.00 | 0.00 | 0.00 | 74 | 1017.4 |
| 20260502120527 | 38 | 319 | 0.0 | 0.0 | 0.00 | 0.00 | 0.00 | 74 | 1017.5 |
| 20260502115530 | 37 | 319 | 0.0 | 0.0 | 0.00 | 0.00 | 0.00 | 74 | 1017.4 |
| 20260502115027 | 37 | 319 | 0.0 | 0.0 | 0.00 | 0.00 | 0.00 | 74 | 1017.3 |
| 20260502114530 | 37 | 319 | 0.0 | 0.0 | 0.00 | 0.00 | 0.00 | 74 | 1017.1 |
| 20260502114024 | 37 | 319 | 0.0 | 0.0 | 0.00 | 0.00 | 0.00 | 74 | 1017.1 |
| 20260502113526 | 37 | 319 | 0.0 | 0.0 | 0.00 | 0.00 | 0.00 | 74 | 1017.0 |
| 20260502113022 | 37 | 319 | 0.0 | 0.0 | 0.00 | 0.00 | 0.00 | 73 | 1016.9 |
| 20260502112520 | 37 | 319 | 0.0 | 0.0 | 0.00 | 0.00 | 0.00 | 73 | 1016.9 |
| 20260502112020 | 37 | 319 | 0.0 | 0.0 | 0.00 | 0.00 | 0.00 | 73 | 1016.7 |
| 20260502111524 | 36 | 319 | 0.0 | 0.0 | 0.00 | 0.00 | 0.00 | 73 | 1016.5 |
| 20260502111018 | 36 | 319 | 0.0 | 0.0 | 0.00 | 0.00 | 0.00 | 73 | 1016.7 |
| 20260502110518 | 36 | 319 | 0.0 | 0.0 | 0.00 | 0.00 | 0.00 | 73 | 1016.8 |
| 20260502110018 | 36 | 319 | 0.0 | 0.0 | 0.00 | 0.00 | 0.00 | 72 | 1016.9 |
| 20260502105521 | 36 | 319 | 0.0 | 0.0 | 0.00 | 0.00 | 0.00 | 72 | 1016.9 |
| 20260502105018 | 35 | 319 | 0.0 | 0.0 | 0.00 | 0.00 | 0.00 | 72 | 1016.9 |
| 20260502104523 | 35 | 319 | 0.0 | 0.0 | 0.00 | 0.00 | 0.00 | 72 | 1016.9 |
| 20260502104016 | 35 | 319 | 0.0 | 0.0 | 0.00 | 0.00 | 0.00 | 72 | 1016.9 |
| 20260502103517 | 35 | 319 | 0.0 | 0.0 | 0.00 | 0.00 | 0.00 | 72 | 1016.9 |
| 20260502103017 | 35 | 319 | 0.0 | 0.0 | 0.00 | 0.00 | 0.00 | 72 | 1016.9 |
| 20260502102516 | 35 | 319 | 0.0 | 0.0 | 0.00 | 0.00 | 0.00 | 72 | 1016.9 |
| 20260502102016 | 35 | 319 | 0.0 | 0.0 | 0.00 | 0.00 | 0.00 | 72 | 1016.8 |
| 20260502101517 | 35 | 319 | 0.0 | 0.0 | 0.00 | 0.00 | 0.00 | 72 | 1016.7 |
| 20260502101015 | 35 | 319 | 0.0 | 0.0 | 0.00 | 0.00 | 0.00 | 72 | 1016.8 |
| 20260502100514 | 35 | 319 | 0.0 | 0.0 | 0.00 | 0.00 | 0.00 | 72 | 1016.8 |
| 20260502091511 | 36 | 319 | 0.0 | 0.0 | 0.00 | 0.00 | 0.00 | 72 | 1016.8 |
| 20260502091009 | 37 | 319 | 0.0 | 0.0 | 0.00 | 0.00 | 0.00 | 72 | 1016.8 |
| 20260502090508 | 37 | 319 | 0.0 | 0.0 | 0.00 | 0.00 | 0.00 | 72 | 1016.9 |
| 20260502071501 | 38 | 319 | 0.0 | 0.0 | 0.00 | 0.00 | 0.00 | 71 | 1016.5 |
| 20260502071102 | 38 | 319 | 0.0 | 0.0 | 0.00 | 0.00 | 0.00 | 71 | 1016.5 |
| 20260502070600 | 38 | 319 | 0.0 | 0.0 | 0.00 | 0.00 | 0.00 | 71 | 1016.5 |
| 20260502065558 | 39 | 319 | 0.0 | 0.0 | 0.00 | 0.00 | 0.00 | 71 | 1016.6 |
| 20260502065058 | 39 | 319 | 0.0 | 0.0 | 0.00 | 0.00 | 0.00 | 71 | 1016.7 |
| 20260502064601 | 39 | 319 | 0.0 | 0.0 | 0.00 | 0.00 | 0.00 | 71 | 1016.7 |
| 20260502064056 | 39 | 319 | 0.0 | 0.0 | 0.00 | 0.00 | 0.00 | 71 | 1016.8 |
| 20260502063557 | 39 | 319 | 0.0 | 0.0 | 0.00 | 0.00 | 0.00 | 71 | 1016.8 |
| 20260502063103 | 39 | 319 | 0.0 | 0.0 | 0.00 | 0.00 | 0.00 | 71 | 1016.8 |
| 20260502062555 | 39 | 319 | 0.0 | 0.0 | 0.00 | 0.00 | 0.00 | 71 | 1017.0 |
| 20260502062057 | 39 | 319 | 0.0 | 0.0 | 0.00 | 0.00 | 0.00 | 70 | 1017.0 |
| 20260502061555 | 39 | 319 | 0.0 | 0.0 | 0.00 | 0.00 | 0.00 | 70 | 1017.2 |
| 20260502060554 | 39 | 319 | 0.0 | 0.0 | 0.00 | 0.00 | 0.00 | 70 | 1017.2 |
| 20260502060108 | 39 | 319 | 0.0 | 0.0 | 0.00 | 0.00 | 0.00 | 70 | 1017.2 |
| 20260502055555 | 39 | 319 | 0.0 | 0.0 | 0.00 | 0.00 | 0.00 | 70 | 1017.3 |
| 20260502055052 | 39 | 319 | 0.0 | 0.0 | 0.00 | 0.00 | 0.00 | 70 | 1017.3 |
| 20260502054552 | 39 | 319 | 0.0 | 0.0 | 0.00 | 0.00 | 0.00 | 70 | 1017.3 |
| 20260502054052 | 39 | 319 | 0.0 | 0.0 | 0.00 | 0.00 | 0.00 | 70 | 1017.2 |
| 20260502053551 | 39 | 319 | 0.0 | 0.0 | 0.00 | 0.00 | 0.00 | 70 | 1017.1 |
| 20260502053100 | 39 | 319 | 0.0 | 0.0 | 0.00 | 0.00 | 0.00 | 70 | 1017.1 |
| 20260502052550 | 39 | 319 | 0.0 | 0.0 | 0.00 | 0.00 | 0.00 | 70 | 1017.0 |
| 20260502052051 | 39 | 319 | 0.0 | 0.0 | 0.00 | 0.00 | 0.00 | 69 | 1017.0 |
| 20260502051559 | 39 | 319 | 0.0 | 0.0 | 0.00 | 0.00 | 0.00 | 69 | 1017.0 |
| 20260502051048 | 40 | 319 | 0.0 | 0.0 | 0.00 | 0.00 | 0.00 | 69 | 1017.1 |
| 20260502050551 | 40 | 319 | 0.0 | 0.0 | 0.00 | 0.00 | 0.00 | 69 | 1017.0 |
| 20260502050054 | 40 | 319 | 0.0 | 0.0 | 0.00 | 0.00 | 0.00 | 69 | 1017.0 |
| 20260502045549 | 40 | 319 | 0.0 | 0.0 | 0.00 | 0.00 | 0.00 | 69 | 1017.1 |
| 20260502045047 | 40 | 319 | 0.0 | 0.0 | 0.00 | 0.00 | 0.00 | 69 | 1017.0 |
| 20260502044546 | 40 | 319 | 0.0 | 0.0 | 0.00 | 0.00 | 0.00 | 69 | 1017.1 |
| 20260502044044 | 40 | 319 | 0.0 | 0.0 | 0.00 | 0.00 | 0.00 | 69 | 1017.1 |
| 20260502043544 | 40 | 319 | 0.0 | 0.0 | 0.00 | 0.00 | 0.00 | 69 | 1017.1 |
| 20260502043044 | 40 | 319 | 0.0 | 0.0 | 0.00 | 0.00 | 0.00 | 69 | 1017.1 |
| 20260502042545 | 41 | 319 | 0.0 | 0.0 | 0.00 | 0.00 | 0.00 | 69 | 1017.1 |
| 20260502042042 | 41 | 319 | 0.0 | 0.0 | 0.00 | 0.00 | 0.00 | 69 | 1017.2 |
| 20260502041542 | 41 | 319 | 0.0 | 0.0 | 0.00 | 0.00 | 0.00 | 68 | 1017.1 |
| 20260502041040 | 41 | 319 | 0.0 | 0.0 | 0.00 | 0.00 | 0.00 | 69 | 1017.1 |
| 20260502040539 | 41 | 319 | 0.0 | 0.0 | 0.00 | 0.00 | 0.00 | 68 | 1017.1 |
| 20260502040039 | 41 | 319 | 0.0 | 0.0 | 0.00 | 0.00 | 0.00 | 68 | 1017.0 |
| 20260502035539 | 41 | 319 | 0.0 | 0.0 | 0.00 | 0.00 | 0.00 | 68 | 1017.1 |
| 20260502035039 | 42 | 319 | 0.0 | 0.0 | 0.00 | 0.00 | 0.00 | 68 | 1017.1 |
| 20260502034539 | 42 | 319 | 0.0 | 0.0 | 0.00 | 0.00 | 0.00 | 68 | 1017.1 |
| 20260502034037 | 42 | 319 | 0.0 | 0.0 | 0.00 | 0.00 | 0.00 | 68 | 1017.1 |
| 20260502033537 | 42 | 319 | 0.0 | 0.0 | 0.00 | 0.00 | 0.00 | 68 | 1017.3 |
| 20260502033039 | 42 | 319 | 0.0 | 0.0 | 0.00 | 0.00 | 0.00 | 68 | 1017.2 |
| 20260502032537 | 42 | 319 | 0.0 | 0.0 | 0.00 | 0.00 | 0.00 | 67 | 1017.2 |
| 20260502032037 | 43 | 319 | 0.0 | 0.0 | 0.00 | 0.00 | 0.00 | 67 | 1017.2 |
| 20260502031542 | 43 | 319 | 0.0 | 0.0 | 0.00 | 0.00 | 0.00 | 67 | 1017.2 |
| 20260502031036 | 43 | 319 | 0.0 | 0.0 | 0.00 | 0.00 | 0.00 | 67 | 1017.2 |
| 20260502030536 | 43 | 319 | 0.0 | 0.0 | 0.00 | 0.00 | 0.00 | 67 | 1017.2 |
| 20260502030036 | 43 | 319 | 0.0 | 0.0 | 0.00 | 0.00 | 0.00 | 67 | 1017.1 |
| 20260502025535 | 43 | 319 | 0.0 | 0.0 | 0.00 | 0.00 | 0.00 | 67 | 1017.1 |
| 20260502025036 | 44 | 319 | 0.0 | 0.0 | 0.00 | 0.00 | 0.00 | 67 | 1017.1 |
| 20260502024537 | 44 | 319 | 0.0 | 0.0 | 0.00 | 0.00 | 0.00 | 67 | 1017.0 |
| 20260502024034 | 44 | 319 | 0.0 | 0.0 | 0.00 | 0.00 | 0.00 | 66 | 1016.9 |
| 20260502023533 | 44 | 319 | 0.0 | 0.0 | 0.00 | 0.00 | 0.00 | 66 | 1016.8 |
| 20260502023033 | 44 | 319 | 0.0 | 0.0 | 0.00 | 0.00 | 0.00 | 66 | 1016.9 |
| 20260502022533 | 44 | 319 | 0.0 | 0.0 | 0.00 | 0.00 | 0.00 | 65 | 1016.9 |
| 20260502022032 | 44 | 319 | 0.0 | 0.0 | 0.00 | 0.00 | 0.00 | 65 | 1016.8 |
| 20260502021533 | 44 | 319 | 0.0 | 0.0 | 0.00 | 0.00 | 0.00 | 64 | 1016.7 |
| 20260502021032 | 44 | 319 | 0.0 | 0.0 | 0.00 | 0.00 | 0.00 | 64 | 1016.6 |
| 20260502020531 | 45 | 319 | 0.0 | 0.0 | 0.00 | 0.00 | 0.00 | 64 | 1016.5 |
| 20260502020030 | 45 | 319 | 0.0 | 0.0 | 0.00 | 0.00 | 0.00 | 64 | 1016.4 |
| 20260502015529 | 45 | 319 | 0.0 | 0.0 | 0.00 | 0.00 | 0.00 | 63 | 1016.4 |
| 20260502015030 | 45 | 319 | 0.0 | 0.0 | 0.00 | 0.00 | 0.00 | 62 | 1016.3 |
| 20260502014531 | 46 | 319 | 0.0 | 0.0 | 0.00 | 0.00 | 0.00 | 62 | 1016.1 |
| 20260502014026 | 46 | 319 | 0.0 | 0.0 | 0.00 | 0.00 | 0.00 | 61 | 1016.0 |
| 20260502013526 | 46 | 319 | 0.0 | 0.0 | 0.00 | 0.00 | 0.00 | 60 | 1016.0 |
| 20260502013026 | 46 | 319 | 0.0 | 0.0 | 0.00 | 0.00 | 0.00 | 60 | 1016.0 |
| 20260502012526 | 47 | 319 | 0.0 | 0.0 | 0.00 | 0.00 | 0.00 | 60 | 1015.8 |
| 20260502012026 | 47 | 319 | 0.0 | 0.0 | 0.00 | 0.00 | 0.00 | 60 | 1015.9 |
| 20260502011542 | 48 | 319 | 0.0 | 0.0 | 0.00 | 0.00 | 0.00 | 59 | 1015.8 |
| 20260502011024 | 48 | 319 | 0.0 | 0.0 | 0.00 | 0.00 | 0.00 | 59 | 1015.5 |
| 20260502010523 | 48 | 319 | 0.0 | 0.0 | 0.00 | 0.00 | 0.00 | 59 | 1015.7 |
| 20260502010024 | 48 | 319 | 0.0 | 0.0 | 0.00 | 0.00 | 0.00 | 58 | 1015.7 |